Hourly Data Report for September 08, 2017

All times are specified in Local Standard Time (LST). Add 1 hour to adjust for Daylight Saving Time where and when it is observed.

PANGNIRTUNG
NUNAVUT

66°08'36.300" N
65°42'40.500" W
22.60 m
2403049
71826
WXP

Download Data

Hourly Data (September 2017)
Hourly Data Report for September 8, 2017
Temp Definition
°C
Dew Point Temp Definition
°C
Rel Hum Definition
%
Wind Dir Definition
10's deg

Wind Spd Definition
km/h
Visibility Definition
km
Stn Press Definition
kPa
Hmdx Definition


Wind Chill Definition


Weather Definition


TIME
00:00 0.5 -0.7 91 22 3   101.04     LegendNANA
01:00 0.5 -1.0 90 21 4   101.01     LegendNANA
02:00 -0.1 -1.7 89 20 4   100.99   -1 LegendNANA
03:00 0.7 -0.4 92 0 1   100.98     LegendNANA
04:00 0.7 -0.6 91 12 2   100.95     LegendNANA
05:00 0.6 -1.0 89 18 4   100.92     LegendNANA
06:00 1.4 -0.2 89 19 3   100.88     LegendNANA
07:00 1.9 0.1 88 5 4   100.84     LegendNANA
08:00 2.0 0.1 87 1 3   100.79     LegendNANA
09:00 2.3 0.2 86   0   100.73     LegendNANA
10:00 3.2 0.6 83 25 11   100.68     LegendNANA
11:00 3.1 0.8 85 26 13   100.65     LegendNANA
12:00 3.8 0.1 77 31 4   100.57     LegendNANA
13:00 4.3 -0.8 69 19 2   100.52     LegendNANA
14:00 3.3 0.6 83 26 16   100.47     LegendNANA
15:00 3.2 0.7 84 25 18   100.43     LegendNANA
16:00 2.8 1.1 89 25 19   100.38     LegendNANA
17:00 2.7 1.3 91 25 11   100.30     LegendNANA
18:00 2.5 1.0 90 23 7   100.24     LegendNANA
19:00 2.3 0.0 85 18 3   100.14     LegendNANA
20:00 2.4 0.8 89 25 1   100.07     LegendNANA
21:00 2.3 -0.3 83 10 2   99.94     LegendNANA
22:00 2.9 -0.8 77 12 7   99.80     LegendNANA
23:00 2.5 0.5 87 13 13   99.68     LegendNANA

Notes on Data Quality.

Legend

  • E = Estimated
  • M = Missing
  • NA = Not Available
  • ‡ = Partner data that is not subject to review by the National Climate Archives
Date modified: